Regional Weather Roundup
Issued by NWS

Home | Current Version | Previous Version | Graphics & Text | Print | Product List | Glossary On
Versions: 1 2 3 4 5 6 7 8 9 10 11 12 13 14 15 16 17 18 19 20 21 22 23 24 25 26 27 28 29 30 31 32 33 34 35 36 37 38 39 40 41 42 43 44 45 46 47 48 49 50
000
ASUS43 KMKX 191921
RWRWI

WISCONSIN REGIONAL WEATHER ROUNDUP
NATIONAL WEATHER SERVICE MILWAUKEE/SULLIVAN WI
200 PM CDT SAT APR 19 2014

NOTE: "FAIR" INDICATES FEW OR NO CLOUDS BELOW 12,000 FEET WITH NO
SIGNIFICANT WEATHER AND/OR OBSTRUCTIONS TO VISIBILITY.

WIZ001-002-006>008-014>016-023>028-192000-
NORTHWEST WISCONSIN

CITY           SKY/WX    TMP DP  RH WIND       PRES   REMARKS
SUPERIOR ARPT  CLOUDY    33  32  96 E9        30.05F WCI  25
ASHLAND        CLOUDY    50  29  44 S10       30.05F
HAYWARD        CLOUDY    50  29  44 S12G22    30.05F
SIREN          CLOUDY    49  31  49 S9        30.03S
RICE LAKE      CLOUDY    57  32  37 SE18G28   30.07F
LADYSMITH      MOSUNNY   55  33  43 SE16G26   30.13F
EAU CLAIRE     PTSUNNY   65  34  31 S20G30    30.09F
MENOMONIE      MOCLDY    62  32  32 SE20      30.09F
NEW RICHMOND   CLOUDY    56  36  46 S17G26    30.04F
OSCEOLA        CLOUDY    57  38  48 S12       30.06R
$$

WIZ003>005-009-010-017-018-192000-
NORTH CENTRAL WISCONSIN

CITY           SKY/WX    TMP DP  RH WIND       PRES   REMARKS
WOODRUFF       CLOUDY    52  26  37 S17G23    30.15F
RHINELANDER    PTSUNNY   47  25  42 S18G28    30.19F
EAGLE RIVER    PTSUNNY   49  21  33 S13G26    30.17F
LAND O LAKES   PTSUNNY   51  22  31 S14G24    30.16F
PHILLIPS       CLOUDY    51  31  47 S16G24    30.13F
TOMAHAWK       PTSUNNY   50  28  42 SE10G16   30.18F
MEDFORD        MOSUNNY   52  34  49 SE16G22   30.18F
MERRILL        MOSUNNY   54  30  39 CALM      30.20F
$$

WIZ029-030-035-036-043>047-192000-
CENTRAL WISCONSIN

CITY           SKY/WX    TMP DP  RH WIND       PRES   REMARKS
WAUSAU         SUNNY     55  29  36 S16       30.20F
MOSINEE        SUNNY     54  32  43 SE14G21   30.22F
MARSHFIELD     MOSUNNY   58  34  40 S20G25    30.18F
STEVENS POINT  MOSUNNY   54  29  38 SE14G21   30.22F
WAUPACA        MOSUNNY   57  30  35 SE14G20   30.26F
WAUTOMA        MOSUNNY   59  32  36 SE14      30.25F
WISC RAPIDS    MOSUNNY   60  30  32 SE15G23   30.21F
CAMP DOUGLAS   MOSUNNY   62  34  34 SE18G26   30.19F
$$

WIZ011>013-019>022-031-037>040-048>050-192000-
NORTHEAST WISCONSIN

CITY           SKY/WX    TMP DP  RH WIND       PRES   REMARKS
ANTIGO         MOSUNNY   49  31  50 SE17      30.24F
STURGEON BAY   MOSUNNY   46  27  46 SE16      30.33F
GREEN BAY      MOSUNNY   51  33  50 SE12      30.31F
MANITOWOC      MOSUNNY   43  31  62 S12       30.34F
APPLETON       PTSUNNY   52  30  43 SE15G22   30.30F
CLINTONVILLE   MOSUNNY   52  30  43 S13G20    30.28F
OSHKOSH        MOSUNNY   55  33  43 SE13      30.28F
$$

WIZ032>034-041-042-053>061-192000-
SOUTHWEST WISCONSIN

CITY           SKY/WX    TMP DP  RH WIND       PRES   REMARKS
LA CROSSE      SUNNY     64  34  32 S18       30.15F
SPARTA         SUNNY     65  32  28 S13G23    30.17F
VIROQUA        FAIR      62  35  36 S20G26    30.17F
BOSCOBEL       MOSUNNY   67  32  27 S10G22    30.20F
PRAIRIE DU CHI MOSUNNY   66  32  28 SE10G18   30.17F
PLATTEVILLE    FAIR      65  34  31 SE15G22   30.24F
$$

WIZ056-057-062-063-064-067-068-192000-
SOUTH CENTRAL WISCONSIN

CITY           SKY/WX    TMP DP  RH WIND       PRES   REMARKS
BARABOO/DELLS  SUNNY     61  33  35 S16G22    30.23F
LONE ROCK      SUNNY     64  35  34 S14       30.22F
WATERTOWN      MOSUNNY   58  35  41 SE12G18   30.29F
MADISON        MOSUNNY   61  35  37 S18       30.27F
MIDDLETON      FAIR      63  32  31 S12       30.26F
MONROE         MOSUNNY   63  33  32 S16G22    30.26F
JANESVILLE     SUNNY     64  30  27 SE15      30.27F
$$

WIZ051-052-058>065-066-070>072-192000-
SOUTHEAST WISCONSIN

CITY           SKY/WX    TMP DP  RH WIND       PRES   REMARKS
MILWAUKEE      PTSUNNY   47  34  60 SE13      30.34F
WAUKESHA       PTSUNNY   54  34  47 SE9       30.33F
MILWAUKEE/TIMM SUNNY     48  34  57 SE7       30.35F
RACINE         PTSUNNY   47  34  60 SE9       30.36F
BURLINGTON     PTSUNNY   56  33  42 S13G18    30.31F
KENOSHA        PTSUNNY   50  37  61 SE9       30.33F
FOND DU LAC    MOSUNNY   55  35  47 S20       30.29F
SHEBOYGAN      MOSUNNY   47  34  60 S16       30.34F
WEST BEND      MOSUNNY   50  32  50 SE8       30.33F
JUNEAU         SUNNY     56  30  37 SE17      30.30F
$$

LSZ147-162-192000-
LAKE SUPERIOR

STATION/POSITION TIME  TEMP    WIND        PRES    WAVE
                       AIR SEA DIR/SP/G            HT/PER
                 (UTC) (F)     (DEG/KT/KT) (MB)    (FT/S)
DEVILS ISLAND    1900   35      50/ 11/ 12 1019.2F
PORT WING        1800   34      40/ 13/ 16 1018.3F
SAXON HARBOR     1840          180/  8/ 15 1016.9F
$$

LMZ867-665-643>646-192000-
LAKE MICHIGAN

STATION/POSITION TIME  TEMP    WIND        PRES    WAVE
                       AIR SEA DIR/SP/G            HT/PER
                 (UTC) (F)     (DEG/KT/KT) (MB)    (FT/S)
NORTHPORT PIER   1800   35      80/  6/  8 1029.1F
SISTER BAY       1823   52     130/ 10/ 13   N/A
KEWAUNEE LAKESHO 1900   36     160/  7/  8 1028.2F
SHEBOYGAN LAKESH 1900   38     180/ 13/ 14 1028.2F
PORT WASHINGTON  1840   41     190/  6/  7 1028.4F
MILWAUKEE LAKESH 1900   38     110/  4/  5   N/A
KENOSHA   LAKESH 1900   44     130/  3/  4   N/A
$$

TC  - TEMPERATURE IN CELSIUS
VSB - VISIBILITY IN STATUTE MILES
WCI - WIND CHILL INDEX
HX  - HEAT INDEX




USA.gov is the U.S. government's official web portal to all federal, state and local government web resources and services.